W6NWF Weather Reports


time (UTC)temp
C
wind
direction
speed
KPH
gust
KPH
rain 1hr
cm
rain 24hr
cm
rain mn
cm
humidity
%
barometer
mb
20260507144543 14 222 1.6 3.2 0.00 0.00 0.00 81 1017.4
20260507144541 14 253 0.0 3.2 0.00 0.00 0.00 81 1016.5
20260507143043 14 181 0.0 3.2 0.00 0.00 0.00 81 1017.2
20260507143039 14 255 0.0 0.0 0.00 0.00 0.00 81 1016.3
20260507141612 12 0 0.0 3.2 0.00 0.00 0.00 87 1017.2
20260507141536 12 255 0.0 0.0 0.00 0.00 0.00 87 1016.3
20260507140053 11 0 0.0 0.0 0.00 0.00 0.00 91 1017.2
20260507140038 11 255 0.0 0.0 0.00 0.00 0.00 91 1016.3
20260507134538 10 255 0.0 0.0 0.00 0.00 0.00 93 1016.2
20260507134535 10 0 0.0 0.0 0.00 0.00 0.00 92 1017.2
20260507133035 10 255 0.0 0.0 0.00 0.00 0.00 92 1016.1
20260507131547 10 0 0.0 0.0 0.00 0.00 0.00 91 1017.2
20260507131538 10 255 0.0 0.0 0.00 0.00 0.00 91 1016.2
20260507130041 10 0 0.0 3.2 0.00 0.00 0.00 91 1017.1
20260507130039 10 255 0.0 0.0 0.00 0.00 0.00 92 1016.0
20260507124536 10 0 0.0 0.0 0.00 0.00 0.00 90 1016.8
20260507124532 10 255 0.0 0.0 0.00 0.00 0.00 91 1015.7
20260507123036 10 0 0.0 0.0 0.00 0.00 0.00 90 1016.8
20260507123030 10 255 0.0 0.0 0.00 0.00 0.00 91 1015.6
20260507121544 10 0 0.0 0.0 0.00 0.00 0.00 90 1016.6
20260507121529 10 255 0.0 0.0 0.00 0.00 0.00 91 1015.4
20260507120043 10 0 0.0 0.0 0.00 0.00 0.00 90 1016.7
20260507120028 10 255 0.0 0.0 0.00 0.00 0.00 90 1015.6
20260507114538 10 0 0.0 0.0 0.00 0.00 0.00 90 1016.7
20260507114527 10 255 0.0 0.0 0.00 0.00 0.00 90 1015.5
20260507113040 10 0 0.0 0.0 0.00 0.00 0.00 89 1016.8
20260507113025 10 255 0.0 0.0 0.00 0.00 0.00 90 1015.6
20260507111539 11 0 0.0 0.0 0.00 0.00 0.00 89 1016.8
20260507111526 11 255 0.0 0.0 0.00 0.00 0.00 89 1015.6
20260507110036 11 0 0.0 0.0 0.00 0.00 0.00 89 1017.0
20260507110022 11 255 0.0 0.0 0.00 0.00 0.00 89 1015.7
20260507104536 11 0 0.0 0.0 0.00 0.00 0.00 88 1017.0
20260507104520 11 255 0.0 0.0 0.00 0.00 0.00 89 1015.8
20260507103040 11 0 0.0 0.0 0.00 0.00 0.00 88 1017.1
20260507103027 11 255 0.0 0.0 0.00 0.00 0.00 89 1015.9
20260507101554 11 0 0.0 0.0 0.00 0.00 0.00 88 1017.2
20260507101517 11 255 0.0 0.0 0.00 0.00 0.00 88 1016.0
20260507100038 11 0 0.0 0.0 0.00 0.00 0.00 88 1017.2
20260507100021 11 255 0.0 0.0 0.00 0.00 0.00 88 1015.9
20260507094554 11 0 0.0 0.0 0.00 0.00 0.00 87 1017.3
20260507094513 11 255 0.0 0.0 0.00 0.00 0.00 88 1016.1
20260507093043 11 0 0.0 0.0 0.00 0.00 0.00 87 1017.6
20260507093012 11 255 0.0 0.0 0.00 0.00 0.00 88 1016.3
20260507091554 12 0 0.0 0.0 0.00 0.00 0.00 87 1017.6
20260507091510 12 255 0.0 0.0 0.00 0.00 0.00 87 1016.3
20260507090043 12 0 0.0 0.0 0.00 0.00 0.00 86 1017.6
20260507090008 12 255 0.0 0.0 0.00 0.00 0.00 87 1016.3
20260507084536 12 0 0.0 0.0 0.00 0.00 0.00 86 1017.7
20260507084505 12 255 0.0 0.0 0.00 0.00 0.00 86 1016.5
20260507083044 12 0 0.0 3.2 0.00 0.00 0.00 86 1017.9
20260507083004 12 255 0.0 0.0 0.00 0.00 0.00 86 1016.5
20260507081608 12 255 0.0 0.0 0.00 0.00 0.00 86 1016.6
20260507081549 12 0 0.0 0.0 0.00 0.00 0.00 85 1017.9
20260507080113 12 255 0.0 0.0 0.00 0.00 0.00 85 1016.8
20260507080042 12 0 0.0 0.0 0.00 0.00 0.00 85 1018.2
20260507074552 12 255 0.0 0.0 0.00 0.00 0.00 84 1016.9
20260507074539 12 0 0.0 0.0 0.00 0.00 0.00 84 1018.1
20260507073048 12 255 0.0 0.0 0.00 0.00 0.00 84 1016.9
20260507073044 12 0 0.0 0.0 0.00 0.00 0.00 83 1018.3
20260507071601 13 255 0.0 0.0 0.00 0.00 0.00 83 1017.0
20260507071543 13 0 0.0 0.0 0.00 0.00 0.00 82 1018.3
20260507070114 13 0 0.0 3.2 0.00 0.00 0.00 82 1018.3
20260507070039 13 255 0.0 0.0 0.00 0.00 0.00 82 1016.9
20260507064546 13 0 0.0 0.0 0.00 0.00 0.00 81 1018.2
20260507064538 13 255 0.0 0.0 0.00 0.00 0.00 82 1017.0
20260507063044 13 255 0.0 0.0 0.00 0.00 0.00 81 1017.1
20260507063042 13 0 0.0 0.0 0.00 0.00 0.00 80 1018.4
20260507061540 14 0 0.0 0.0 0.00 0.00 0.00 80 1018.5
20260507060038 14 255 0.0 0.0 0.00 0.00 0.00 81 1017.0
20260507060036 14 0 0.0 0.0 0.00 0.00 0.00 81 1018.3
20260507054536 15 255 0.0 0.0 0.00 0.00 0.00 81 1017.0
20260507053105 15 255 0.0 0.0 0.00 0.00 0.00 81 1017.0
20260507053043 15 0 0.0 3.2 0.00 0.00 0.00 80 1018.5
20260507051542 15 255 0.0 1.6 0.00 0.00 0.00 82 1017.0
20260507051540 15 0 0.0 3.2 0.00 0.00 0.00 82 1018.4
20260507050043 15 0 0.0 3.2 0.00 0.00 0.00 82 1018.3
20260507050037 15 255 0.0 1.6 0.00 0.00 0.00 82 1017.0
20260507044546 15 0 0.0 4.8 0.00 0.00 0.00 81 1018.3
20260507044535 15 255 0.0 6.4 0.00 0.00 0.00 81 1016.9
20260507043044 16 259 0.0 3.2 0.00 0.00 0.00 79 1018.2
20260507043036 16 235 0.0 4.8 0.00 0.00 0.00 79 1016.8
20260507041535 16 314 0.0 3.2 0.00 0.00 0.00 76 1018.2
20260507041533 16 235 0.0 4.8 0.00 0.00 0.00 77 1016.7
20260507040048 16 271 0.0 4.8 0.00 0.00 0.00 75 1018.2
20260507040032 16 240 0.0 8.0 0.00 0.00 0.00 75 1016.7
20260507034546 16 286 0.0 3.2 0.00 0.00 0.00 73 1018.0
20260507034537 16 216 0.0 4.8 0.00 0.00 0.00 73 1016.6
20260507033040 16 213 0.0 3.2 0.00 0.00 0.00 71 1016.4
20260507033037 16 322 0.0 3.2 0.00 0.00 0.00 71 1017.7
20260507031544 17 273 0.0 3.2 0.00 0.00 0.00 69 1017.7
20260507031531 17 213 0.0 6.4 0.00 0.00 0.00 70 1016.4
20260507030046 17 287 0.0 6.4 0.00 0.00 0.00 67 1017.6
20260507030031 17 199 0.0 1.6 0.00 0.00 0.00 68 1016.3
20260507024540 17 248 0.0 6.4 0.00 0.00 0.00 66 1017.5
20260507024533 17 222 0.0 4.8 0.00 0.00 0.00 66 1016.2
20260507023036 17 291 3.2 8.0 0.00 0.00 0.00 65 1017.4
20260507023034 17 202 0.0 0.0 0.00 0.00 0.00 65 1016.0
20260507021541 18 270 1.6 8.0 0.00 0.00 0.00 63 1017.3
20260507021528 18 259 0.0 0.0 0.00 0.00 0.00 64 1016.0
20260507020050 18 218 4.8 9.7 0.00 0.00 0.00 61 1017.1
20260507020029 18 219 0.0 0.0 0.00 0.00 0.00 62 1015.8
20260507014552 19 225 3.2 8.0 0.00 0.00 0.00 59 1017.1
20260507014528 19 215 0.0 0.0 0.00 0.00 0.00 60 1015.8
20260507013038 20 225 3.2 8.0 0.00 0.00 0.00 58 1017.1
20260507013027 20 201 0.0 0.0 0.00 0.00 0.00 59 1015.8
20260507011536 20 279 4.8 12.9 0.00 0.00 0.00 59 1016.8
20260507011533 20 214 0.0 0.0 0.00 0.00 0.00 59 1015.7
20260507010036 20 211 4.8 12.9 0.00 0.00 0.00 59 1016.9
20260507010027 20 175 0.0 0.0 0.00 0.00 0.00 59 1015.6
20260507004544 20 203 4.8 14.5 0.00 0.00 0.00 59 1016.8
20260507004535 20 179 0.0 0.0 0.00 0.00 0.00 59 1015.6
20260507003043 21 290 4.8 12.9 0.00 0.00 0.00 58 1016.8
20260507003025 21 204 0.0 0.0 0.00 0.00 0.00 58 1015.5
20260507001540 21 280 4.8 14.5 0.00 0.00 0.00 58 1016.5
20260507001524 21 286 0.0 0.0 0.00 0.00 0.00 58 1015.4
20260507000039 21 226 4.8 12.9 0.00 0.00 0.00 57 1016.5
20260507000024 21 153 0.0 0.0 0.00 0.00 0.00 58 1015.2
20260506234536 21 205 6.4 16.1 0.00 0.00 0.00 58 1016.4
20260506234523 21 194 0.0 0.0 0.00 0.00 0.00 59 1015.2
20260506233036 21 310 6.4 12.9 0.00 0.00 0.00 58 1016.3
20260506233024 21 190 0.0 0.0 0.00 0.00 0.00 58 1015.3
20260506231540 21 250 6.4 14.5 0.00 0.00 0.00 58 1016.5
20260506231522 21 181 0.0 0.0 0.00 0.00 0.00 58 1015.3
20260506230043 21 260 9.7 17.7 0.00 0.00 0.00 59 1016.5
20260506230021 21 186 0.0 0.0 0.00 0.00 0.00 59 1015.3
20260506224542 21 181 6.4 17.7 0.00 0.00 0.00 57 1016.7
20260506224520 21 200 0.0 0.0 0.00 0.00 0.00 57 1015.5
20260506223042 21 291 4.8 16.1 0.00 0.00 0.00 58 1016.7
20260506223018 21 223 0.0 0.0 0.00 0.00 0.00 59 1015.7
20260506221544 21 331 8.0 20.9 0.00 0.00 0.00 57 1016.7
20260506221517 21 210 0.0 0.0 0.00 0.00 0.00 58 1015.6
20260506220044 21 272 9.7 22.5 0.00 0.00 0.00 57 1016.7
20260506220030 21 272 0.0 0.0 0.00 0.00 0.00 58 1015.8
20260506214538 21 196 6.4 17.7 0.00 0.00 0.00 58 1016.8
20260506214515 21 173 0.0 0.0 0.00 0.00 0.00 58 1015.8
20260506213036 22 232 6.4 19.3 0.00 0.00 0.00 57 1016.8
20260506213014 22 199 0.0 0.0 0.00 0.00 0.00 57 1016.0
20260506211543 21 345 6.4 20.9 0.00 0.00 0.00 56 1016.8
20260506211512 21 316 0.0 0.0 0.00 0.00 0.00 57 1016.1
20260506210049 22 275 8.0 19.3 0.00 0.00 0.00 56 1017.0
20260506210013 22 228 0.0 0.0 0.00 0.00 0.00 56 1016.2
20260506204540 22 228 8.0 22.5 0.00 0.00 0.00 55 1017.2
20260506204511 22 217 0.0 0.0 0.00 0.00 0.00 56 1016.3
20260506203040 22 251 6.4 17.7 0.00 0.00 0.00 54 1017.2
20260506203018 22 197 0.0 0.0 0.00 0.00 0.00 54 1016.4
20260506201544 22 319 6.4 17.7 0.00 0.00 0.00 54 1017.1
20260506201508 22 240 0.0 0.0 0.00 0.00 0.00 54 1016.5
20260506200043 22 263 6.4 19.3 0.00 0.00 0.00 51 1017.3
20260506200006 22 225 0.0 0.0 0.00 0.00 0.00 52 1016.5
20260506194550 22 237 8.0 16.1 0.00 0.00 0.00 51 1017.4
20260506194505 22 231 0.0 0.0 0.00 0.00 0.00 51 1016.6
20260506193045 22 231 8.0 22.5 0.00 0.00 0.00 48 1017.6
20260506193003 22 188 0.0 0.0 0.00 0.00 0.00 49 1016.8
20260506191609 22 271 0.0 0.0 0.00 0.00 0.00 50 1017.0
20260506191541 22 327 4.8 14.5 0.00 0.00 0.00 49 1017.7
20260506190059 22 201 0.0 0.0 0.00 0.00 0.00 49 1017.1
20260506190036 22 219 6.4 17.7 0.00 0.00 0.00 48 1017.8
20260506184556 21 215 0.0 11.3 0.00 0.00 0.00 52 1017.4
20260506184548 21 221 3.2 11.3 0.00 0.00 0.00 51 1018.0
20260506183057 21 171 8.0 14.5 0.00 0.00 0.00 55 1017.5
20260506183042 21 234 4.8 9.7 0.00 0.00 0.00 54 1018.2
20260506181556 20 188 8.0 14.5 0.00 0.00 0.00 57 1017.7
20260506181542 20 230 4.8 12.9 0.00 0.00 0.00 57 1018.3
20260506180105 20 190 3.2 14.5 0.00 0.00 0.00 59 1017.8
20260506180040 20 271 4.8 11.3 0.00 0.00 0.00 59 1018.6
20260506174543 18 232 1.6 8.0 0.00 0.00 0.00 59 1018.7
20260506173104 18 338 1.6 11.3 0.00 0.00 0.00 61 1018.8
20260506173047 18 269 1.6 12.9 0.00 0.00 0.00 62 1018.2
20260506171553 18 265 4.8 11.3 0.00 0.00 0.00 62 1019.0
20260506171539 18 232 3.2 11.3 0.00 0.00 0.00 63 1018.4
20260506170041 17 267 3.2 8.0 0.00 0.00 0.00 63 1019.0
20260506170035 17 254 1.6 14.5 0.00 0.00 0.00 63 1018.4
20260506164536 17 234 3.2 8.0 0.00 0.00 0.00 65 1019.1
20260506164533 17 235 3.2 8.0 0.00 0.00 0.00 65 1018.5
20260506163049 16 219 3.2 8.0 0.00 0.00 0.00 67 1019.1
20260506163032 16 178 3.2 11.3 0.00 0.00 0.00 67 1018.5
20260506161545 16 257 3.2 6.4 0.00 0.00 0.00 67 1019.1
20260506161533 16 225 4.8 9.7 0.00 0.00 0.00 67 1018.4
20260506160044 16 290 1.6 6.4 0.00 0.00 0.00 69 1019.1
20260506160027 16 257 1.6 6.4 0.00 0.00 0.00 70 1018.5
20260506154547 16 215 1.6 3.2 0.00 0.00 0.00 68 1019.1
20260506154527 16 193 0.0 4.8 0.00 0.00 0.00 69 1018.5
20260506153039 16 244 0.0 3.2 0.00 0.00 0.00 70 1019.2
20260506153025 16 192 0.0 0.0 0.00 0.00 0.00 70 1018.6
20260506151535 15 138 0.0 3.2 0.00 0.00 0.00 72 1019.2
20260506151522 15 192 0.0 0.0 0.00 0.00 0.00 72 1018.5
20260506150043 15 0 0.0 4.8 0.00 0.00 0.00 74 1019.2
20260506150018 15 192 0.0 0.0 0.00 0.00 0.00 75 1018.6